This is the latest recevied weather packets stored in our database for station/object AI9F. If no packets are shown the sender has not sent any weather packets the latest 10 day(s).
| Time | Temp. | Humidity | Pressure | Rain* | Wind** | Luminosity | Snow |
|---|---|---|---|---|---|---|---|
| 1777971842 | 15.56° C | 90% | 1007.7 hPa | 0 mm | - | 0 W/m² | - |
| 1777971539 | 15.56° C | 89% | 1007.5 hPa | 1.27 mm | - | 0 W/m² | - |
| 1777971237 | 15.56° C | 87% | 1007.7 hPa | 3.05 mm | - | 0 W/m² | - |
| 1777970935 | 16.11° C | 84% | 1007.7 hPa | 3.05 mm | - | 0 W/m² | - |
| 1777970633 | 16.67° C | 83% | 1007.8 hPa | 3.05 mm | - | 0 W/m² | - |
| 1777970330 | 17.22° C | 80% | 1008 hPa | 3.05 mm | - | 0 W/m² | - |
| 1777970028 | 18.33° C | 75% | 1007.8 hPa | 1.27 mm | - | 0 W/m² | - |
| 1777969724 | 18.33° C | 68% | 1007.7 hPa | 0 mm | - | 0 W/m² | - |
| 1777969420 | 18.33° C | 67% | 1007.7 hPa | 0 mm | - | 0 W/m² | - |
| 1777969116 | 18.33° C | 67% | 1007.6 hPa | 0 mm | - | 0 W/m² | - |
| 1777968813 | 18.89° C | 66% | 1007.8 hPa | 0 mm | - | 0 W/m² | - |
| 1777968510 | 18.89° C | 64% | 1007.5 hPa | 0 mm | - | 0 W/m² | - |
| 1777968206 | 18.89° C | 63% | 1007 hPa | 0 mm | - | 0 W/m² | - |
| 1777967901 | 19.44° C | 61% | 1006.8 hPa | 0 mm | - | 0 W/m² | - |
| 1777967599 | 20° C | 59% | 1006.6 hPa | 0 mm | - | 0 W/m² | - |
| 1777967296 | 19.44° C | 58% | 1006.2 hPa | 0 mm | - | 0 W/m² | - |
| 1777966993 | 19.44° C | 58% | 1006.3 hPa | 0 mm | - | 0 W/m² | - |
| 1777966691 | 19.44° C | 58% | 1006.3 hPa | 0 mm | - | 0 W/m² | - |
| 1777966388 | 19.44° C | 58% | 1006.1 hPa | 0 mm | - | 0 W/m² | - |
| 1777966085 | 20° C | 58% | 1006.1 hPa | 0 mm | - | 0 W/m² | - |
| 1777965781 | 20° C | 59% | 1006.1 hPa | 0 mm | - | 0 W/m² | - |
| 1777965477 | 20° C | 57% | 1006.1 hPa | 0 mm | - | 0 W/m² | - |
| 1777965174 | 20° C | 57% | 1006.1 hPa | 0 mm | - | 0 W/m² | - |
| 1777964871 | 20° C | 57% | 1006.1 hPa | 0 mm | - | 0 W/m² | - |
| 1777964568 | 20° C | 57% | 1005.9 hPa | 0 mm | - | 0 W/m² | - |
* Rain latest hour (hover to see other rain measurements)
** Current wind speed in m/s (hover to see current wind gust speed)